Terminal Aerodrome Forecast
Issued by NWS Boston, MA

Home | Current Version | Previous Version | Text Only | Print | Product List | Glossary On
Versions: 1 2 3 4 5 6 7 8 9 10 11 12 13 14 15 16 17 18 19 20 21 22 23 24 25 26 27 28 29 30 31 32 33 34 35 36 37 38 39 40 41 42 43
000
FTUS41 KBOX 221136
TAFBDL
TAF
KBDL 221136Z 2212/2318 01004KT P6SM BKN015
     FM221600 02004KT P6SM BKN020
     FM222100 04004KT P6SM BKN010
     FM230000 04004KT P6SM OVC015
     FM230300 36004KT P6SM OVC010
     FM230400 36004KT 3SM -SHRA OVC010=

USA.gov is the U.S. government's official web portal to all federal, state and local government web resources and services.